#timestamp,LO_Frequency,Hit,StdDev 
1640775615.6,286047001.0,N
1640775635.4,286047002.8,N
1640775655.3,286046999.7,N
1640775675.1,286047002.5,N
1640775695.8,286047001.3,N
1640775715.7,286047000.0,N
1640775735.5,286046996.6,N
1640775755.3,286046998.3,N
1640775775.2,286046998.7,N
1640775795.0,286046996.8,N
1640775795.9,286046996.8,N
1640775815.8,286046997.3,N
1640775835.6,286046999.5,N
1640775855.4,286046999.5,N
1640775875.3,286047000.8,N
1640775895.1,286047001.1,N
1640775915.9,286046998.3,N
1640775935.7,286046998.7,N
1640775955.5,286047001.1,N
1640775975.4,286047002.7,N
1640775995.2,286046999.7,N
1640776015.1,286046998.1,N
1640776016.0,286046998.1,N
1640776035.8,286047001.1,N
1640776055.6,286047000.4,N
1640776075.5,286047000.4,N
1640776095.3,286047000.8,N
1640776115.1,286046998.6,N
1640776135.9,286046999.9,N
1640776155.7,286047000.6,N
1640776175.6,286047000.6,N
1640776195.4,286046999.8,N
1640776215.2,286046999.9,N
1640776235.1,286046998.3,N
1640776236.0,286046998.3,N
1640776255.8,286046998.5,N
1640776275.6,286046999.9,N
1640776295.5,286047002.6,N
1640776315.3,286047002.1,N
1640776335.2,286047001.7,N
1640776355.9,286047001.3,N
1640776375.7,286047004.3,Y
1640776395.6,286047004.2,P
1640776415.4,286047004.1,N
1640776435.2,286047003.2,N
1640776455.1,286047003.3,N
1640776456.0,286047003.3,N
1640776475.8,286047004.2,N
1640776495.7,286047003.9,N
1640776515.5,286047004.2,Y
1640776535.3,286047000.5,P
1640776555.2,286047002.8,N
1640776575.0,286046999.8,N
1640776575.9,286046999.8,N
1640776595.7,286047000.4,N
1640776615.6,286047001.1,N
1640776635.4,286046998.4,N
1640776655.3,286046998.9,N
1640776675.1,286046997.7,N
1640776676.0,286046997.7,N
1640776695.8,286046996.9,N
1640776715.7,286046999.2,N
1640776735.5,286046998.8,N
1640776755.4,286046998.1,N
1640776775.2,286046998.5,N
1640776795.0,286046998.3,N
1640776795.9,286046998.3,N
1640776815.8,286047000.0,N
1640776835.6,286047000.6,N
1640776855.4,286046998.4,N
1640776875.3,286046997.1,N
1640776895.1,286046997.6,N
1640776915.9,286046999.4,N
1640776935.7,286046997.6,N
1640776955.5,286046995.5,N
1640776975.4,286046995.9,N
1640776995.2,286046997.5,N
1640777015.1,286046994.9,N
1640777016.0,286046994.9,N
1640777035.8,286046997.7,N
1640777055.6,286046996.7,N
1640777075.5,286046996.9,N
1640777095.3,286046999.4,N
1640777115.1,286046999.0,N
1640777135.9,286046999.4,N
1640777155.7,286046998.4,N
1640777175.6,286047000.7,N
1640777195.4,286047000.7,N
1640777215.2,286046998.6,N
1640777235.1,286046998.5,N
1640777236.0,286046998.5,N
1640777255.8,286046998.6,N
1640777275.7,286046998.7,N
1640777295.5,286046998.3,N
1640777315.3,286046998.4,N
1640777335.2,286046999.2,N
1640777355.9,286046998.7,N
1640777375.7,286046998.8,N
1640777395.6,286046999.2,N
1640777415.4,286046999.1,N
1640777435.3,286046997.0,N
1640777455.1,286046997.4,N
1640777456.0,286046997.4,N
1640777475.8,286046997.2,N
1640777495.7,286046996.7,N
1640777515.5,286046998.5,N
1640777535.4,286046998.8,N
1640777555.2,286046999.2,N
1640777575.0,286046998.3,N
1640777575.9,286046998.3,N
1640777595.8,286046999.1,N
1640777615.6,286046998.9,N
1640777635.4,286046998.4,N
1640777655.3,286046998.4,N
1640777675.1,286046998.4,N
1640777695.9,286046999.5,N
1640777715.7,286046996.8,Y
1640777735.5,286046999.0,P
1640777755.4,286046998.3,P
1640777775.2,286047000.8,N
1640777795.1,286047001.1,N
1640777796.0,286047001.1,N
1640777815.8,286046999.0,N
1640777835.6,286046998.3,N
1640777855.5,286047000.8,N
1640777875.3,286047000.7,N
1640777895.1,286047001.2,N
1640777915.9,286046999.6,N
1640777935.7,286046998.8,N
1640777955.6,286046998.3,N
1640777975.4,286047001.1,N
1640777995.2,286046998.9,N
1640778015.1,286046998.5,N
1640778016.0,286046998.5,N
1640778035.8,286047000.6,N
1640778055.7,286047002.3,N
1640778075.5,286047002.7,N
1640778095.3,286047000.3,N
1640778115.2,286047002.0,N
1640778135.0,286047000.0,N
1640778135.9,286047000.0,N
1640778155.8,286047000.6,N
1640778175.6,286047001.0,N
1640778195.4,286046996.7,N
1640778215.3,286046997.0,N
1640778235.1,286046996.7,N
1640778255.8,286046996.9,N
1640778275.7,286046996.6,N
1640778295.5,286046997.4,N
1640778315.4,286046997.0,N
1640778335.2,286046996.6,N
1640778355.0,286046997.3,N
1640778355.9,286046997.3,N
1640778375.8,286046997.3,N
1640778395.6,286046999.6,N
1640778415.4,286046999.6,N
1640778435.3,286046997.3,N
1640778455.1,286046995.0,N
1640778475.9,286046997.2,N
1640778495.7,286046997.0,N
1640778515.5,286046997.8,N
1640778535.4,286046997.8,N
1640778555.2,286046997.7,N
1640778575.0,286046996.7,N
1640778575.9,286046996.7,N
1640778595.8,286046997.1,N
1640778615.6,286046997.3,N
1640778635.5,286046997.7,N
1640778655.3,286046996.6,N
1640778675.1,286046998.9,N
1640778695.9,286046999.3,N
1640778715.7,286046998.7,N
1640778735.5,286046998.2,N
1640778755.4,286046999.2,N
1640778775.2,286046994.9,Y
1640778795.1,286047000.8,P
1640778796.0,286047000.8,N
1640778815.8,286046998.5,N
1640778835.6,286047000.9,N
1640778855.5,286047001.0,N
1640778875.3,286046999.9,N
1640778895.2,286047001.8,N
1640778915.9,286047001.7,N
1640778935.7,286047002.8,N
1640778955.6,286047000.3,N
1640778975.4,286046999.6,N
1640778995.2,286046998.6,N
1640779015.1,286046998.8,N
1640779016.0,286046998.8,N
1640779035.8,286047001.1,N
1640779055.7,286046998.3,N
1640779075.5,286047001.0,N
1640779095.3,286047000.1,N
1640779115.2,286047000.4,N
1640779135.0,286047001.6,N
1640779135.9,286047001.6,N
1640779155.8,286047004.4,Y
1640779175.6,286047001.3,P
1640779195.4,286047002.2,P
